Location: DaltonSkyGazer Observatory
(42.4858°N, 73.1565°W)
Time: 07:38:43
(UTC-04:00)

Helios 1B - Visible Passes

Search period start: 21 April 2018 00:00
Search period end: 01 May 2018 00:00
Orbit: 620 x 623 km, 98.2° (Epoch: 20 April)

Date Brightness Start Highest point End Pass type
(mag) Time Alt. Az. Time Alt. Az. Time Alt. Az.
21 Apr 6.8 02:08:19 20° NNW 02:08:19 20° NNW 02:09:45 10° NNW visible
22 Apr 7.3 00:49:03 14° NE 00:49:03 14° NE 00:50:10 10° NNE visible
22 Apr 6.8 02:26:15 18° NNW 02:26:15 18° NNW 02:27:28 10° NNW visible
23 Apr 7.1 01:06:58 18° NNE 01:06:58 18° NNE 01:08:38 10° NNE visible
23 Apr 6.9 02:44:10 15° NW 02:44:10 15° NW 02:45:04 10° NNW visible
24 Apr 6.8 01:24:53 23° NNE 01:24:53 23° NNE 01:26:49 10° N visible
24 Apr 7.1 03:02:06 12° NW 03:02:06 12° NW 03:02:26 10° NW visible
25 Apr 6.6 01:42:50 26° N 01:42:50 26° N 01:44:52 10° N visible
26 Apr 6.4 02:00:45 27° N 02:00:45 27° N 02:02:47 10° NNW visible
27 Apr 7.3 00:41:29 13° NE 00:41:29 13° NE 00:42:47 10° NNE visible
27 Apr 6.4 02:18:41 25° NNW 02:18:41 25° NNW 02:20:34 10° NNW visible
28 Apr 7.0 00:59:24 18° NE 00:59:24 18° NE 01:01:26 10° NNE visible
28 Apr 6.5 02:36:36 21° NW 02:36:36 21° NW 02:38:14 10° NNW visible
29 Apr 6.7 01:17:21 24° NE 01:17:21 24° NE 01:19:44 10° N visible
29 Apr 6.7 02:54:32 16° NW 02:54:32 16° NW 02:55:42 10° NW visible
30 Apr 6.3 01:35:16 30° NNE 01:35:16 30° NNE 01:37:50 10° N visible
30 Apr 7.0 03:12:28 12° NW 03:12:28 12° NW 03:12:54 10° NW visible
